EW3232 Weather Reports


Display with metric or nautical units.
time (UTC)temp
F
wind
direction
speed
MPH
gust
MPH
rain 1hr
in
rain 24hr
in
rain mn
in
humidity
%
barometer
mb
20260903110024 86 49 2.0 13.0 0.00 0.00 0.00 60 1023.5
20260903104541 85 100 3.0 10.0 0.00 0.00 0.00 60 1023.5
20260903103048 84 54 7.0 11.0 0.00 0.00 0.00 61 1023.7
20260903101516 83 54 5.0 11.0 0.00 0.00 0.00 60 1023.8
20260903100004 83 78 4.0 10.0 0.00 0.00 0.00 63 1023.9
20260903094550 82 142 0.0 9.0 0.00 0.00 0.00 64 1023.8
20260903093050 81 38 3.0 9.0 0.00 0.00 0.00 66 1023.8
20260903091606 80 69 3.0 6.0 0.00 0.00 0.00 70 1023.8
20260903090039 79 77 2.0 7.0 0.00 0.00 0.00 73 1023.8
20260903084602 78 92 3.0 8.0 0.00 0.00 0.00 75 1023.7
20260903083106 77 127 2.0 5.0 0.00 0.00 0.00 77 1023.6
20260903081628 76 124 3.0 6.0 0.00 0.00 0.00 81 1023.5
20260903080122 76 147 0.0 2.0 0.00 0.00 0.00 82 1023.5
20260903074640 73 232 0.0 2.0 0.00 0.00 0.00 87 1023.8
20260903073139 72 237 0.0 2.0 0.00 0.00 0.00 90 1023.8
20260903071700 71 237 1.0 3.0 0.00 0.00 0.00 90 1023.8
20260903070143 69 138 0.0 2.0 0.00 0.00 0.00 90 1023.6
20260903064645 69 138 0.0 2.0 0.00 0.00 0.00 90 1023.5
20260903060152 68 244 0.0 3.0 0.00 0.00 0.00 92 1023.1
20260903054659 67 256 2.0 6.0 0.00 0.00 0.00 92 1022.8
20260903053012 67 268 2.0 4.0 0.00 0.00 0.00 92 1022.9
20260903051551 67 266 0.0 2.0 0.00 0.00 0.00 92 1022.5
20260903050039 67 266 0.0 2.0 0.00 0.00 0.00 91 1022.6
20260903044640 67 266 1.0 3.0 0.00 0.00 0.00 91 1022.4
20260903043003 67 258 3.0 4.0 0.00 0.00 0.00 91 1022.4
20260903041613 67 266 0.0 2.0 0.00 0.00 0.00 90 1022.5
20260903040058 67 266 2.0 3.0 0.00 0.00 0.00 90 1022.3
20260903040019 67 266 2.0 3.0 0.00 0.00 0.00 90 1022.3
20260903034615 67 266 0.0 3.0 0.00 0.00 0.00 90 1022.4
20260903033131 67 260 3.0 6.0 0.00 0.00 0.00 91 1022.5
20260903031638 67 286 3.0 4.0 0.00 0.00 0.00 91 1022.6
20260903030134 67 277 1.0 2.0 0.00 0.00 0.00 90 1022.6
20260903024646 67 262 0.0 2.0 0.00 0.00 0.00 89 1022.7
20260903021535 68 262 0.0 2.0 0.00 0.00 0.00 89 1022.6
20260903020036 68 308 1.0 2.0 0.00 0.00 0.00 89 1022.7
20260903014546 68 277 1.0 3.0 0.00 0.00 0.00 89 1022.6
20260903013056 68 266 1.0 2.0 0.00 0.00 0.00 89 1022.6
20260903011622 69 267 0.0 2.0 0.00 0.00 0.00 89 1022.6
20260903010020 69 267 1.0 3.0 0.00 0.00 0.00 89 1022.5
20260903004533 69 275 1.0 3.0 0.00 0.00 0.00 88 1022.6
20260903003122 69 269 1.0 3.0 0.00 0.00 0.00 88 1022.6
20260903001613 70 273 1.0 3.0 0.00 0.00 0.00 88 1022.7
20260903000110 70 285 1.0 2.0 0.00 0.00 0.00 87 1022.7
20260902234542 70 285 0.0 2.0 0.00 0.00 0.00 87 1022.6
20260902233007 70 253 0.0 4.0 0.00 0.00 0.00 87 1022.6
20260902231556 71 337 0.0 2.0 0.00 0.00 0.00 86 1022.6
20260902230029 71 263 1.0 3.0 0.00 0.00 0.00 86 1022.5
20260902224529 71 268 2.0 4.0 0.00 0.00 0.00 86 1022.5
20260902223108 71 268 3.0 6.0 0.00 0.00 0.00 87 1022.5
20260902221538 71 262 1.0 3.0 0.00 0.00 0.00 86 1022.6
20260902220003 72 262 0.0 3.0 0.00 0.00 0.00 85 1022.6
20260902214550 72 262 0.0 2.0 0.00 0.00 0.00 85 1022.5
20260902213109 73 262 1.0 3.0 0.00 0.00 0.00 84 1022.3
20260902211612 73 262 0.0 3.0 0.00 0.00 0.00 84 1022.2
20260902210108 74 252 0.0 2.0 0.00 0.00 0.00 83 1022.2
20260902204504 74 252 1.0 3.0 0.00 0.00 0.00 83 1022.2
20260902203052 74 252 0.0 2.0 0.00 0.00 0.00 82 1022.1
20260902201614 74 252 0.0 2.0 0.00 0.00 0.00 82 1022.1
20260902200048 75 260 0.0 2.0 0.00 0.00 0.00 81 1021.8
20260902194559 74 260 1.0 2.0 0.00 0.00 0.00 81 1021.8
20260902193127 75 280 0.0 3.0 0.00 0.00 0.00 80 1021.7
20260902191639 75 271 0.0 3.0 0.00 0.00 0.00 80 1021.5
20260902190128 76 4 1.0 3.0 0.00 0.00 0.00 79 1021.5
20260902184643 77 31 0.0 2.0 0.00 0.00 0.00 78 1021.4
20260902181552 78 88 0.0 8.0 0.00 0.00 0.00 77 1021.1
20260902180028 79 108 4.0 9.0 0.00 0.00 0.00 75 1021.0
20260902174532 80 140 1.0 4.0 0.00 0.00 0.00 74 1021.1
20260902173047 80 120 2.0 7.0 0.00 0.00 0.00 74 1021.0
20260902171605 80 108 4.0 6.0 0.00 0.00 0.00 73 1021.0
20260902170057 81 95 2.0 7.0 0.00 0.00 0.00 73 1020.7
20260902164615 81 127 2.0 8.0 0.00 0.00 0.00 72 1021.1
20260902163128 81 48 5.0 10.0 0.00 0.00 0.00 70 1021.3
20260902161648 82 63 3.0 10.0 0.00 0.00 0.00 70 1020.9
20260902160009 83 73 5.0 10.0 0.00 0.00 0.00 69 1021.0
20260902154537 82 161 4.0 12.0 0.00 0.00 0.00 71 1021.0
20260902153103 83 84 3.0 12.0 0.00 0.00 0.00 71 1021.0
20260902151614 83 105 8.0 12.0 0.00 0.00 0.00 71 1020.9
20260902150106 83 83 5.0 12.0 0.00 0.00 0.00 70 1021.0
20260902144615 83 65 8.0 13.0 0.00 0.00 0.00 69 1021.0
20260902143010 84 63 7.0 12.0 0.00 0.00 0.00 68 1021.1
20260902141535 84 102 9.0 15.0 0.00 0.00 0.00 66 1021.2
20260902140015 84 61 5.0 14.0 0.00 0.00 0.00 66 1021.2
20260902134539 85 104 6.0 14.0 0.00 0.00 0.00 64 1021.5
20260902133049 85 158 6.0 12.0 0.00 0.00 0.00 64 1021.4
20260902131606 85 11 5.0 12.0 0.00 0.00 0.00 64 1021.4
20260902130049 84 101 1.0 9.0 0.00 0.00 0.00 65 1021.4
20260902123016 83 170 5.0 11.0 0.00 0.00 0.00 67 1021.7
20260902121523 82 140 2.0 12.0 0.00 0.00 0.00 68 1021.9
20260902120014 83 153 8.0 11.0 0.00 0.00 0.00 66 1022.0
20260902114537 82 124 8.0 18.0 0.00 0.00 0.00 67 1022.0
20260902113029 82 23 6.0 13.0 0.00 0.00 0.00 68 1022.1
20260902111556 83 83 5.0 12.0 0.00 0.00 0.00 65 1022.3